This demonstration page uses our WeatherBlox Daily Observations layout. Learn more.

Left ArrowRight Arrow

41.55636, -103.73856

Hourly Observations for December 30, 2021

Temp ( °F °C ) Dew Point ( °F °C ) Humidity (%) Winds ( mph kmh ) Pressure ( in mb ) Visibility ( mi km ) Precip ( " mm )
12:58 am 00:58 Mostly Clear 20 -6.8 3 -16.1 48 48 SSW 26 43 29.70 1006 10 16 0.00 0.00
1:58 am 01:58 Clear 20 -6.7 2 -16.7 45 45 SSW 25 41 29.67 1005 10 16 0.00 0.00
2:58 am 02:58 Clear 22 -5.7 1 -17.2 40 40 SSW 17 28 29.67 1005 10 16 0.00 0.00
3:58 am 03:58 Clear 19 -7 2 -16.5 47 47 SW 25 41 29.66 1004 10 16 0.00 0.00
4:58 am 04:58 Clear 24 -4.7 7 -13.9 49 49 SW 24 39 29.63 1004 10 16 0.00 0.00
5:58 am 05:58 Clear 30 -1.2 8 -13.3 40 40 SW 25 41 29.61 1003 10 16 0.00 0.00
6:58 am 06:58 Clear 26 -3.3 10 -12.3 50 50 SW 20 31 29.63 1004 10 16 0.00 0.00
7:58 am 07:58 Sunny 27 -3 11 -11.6 52 52 WSW 18 30 29.66 1004 10 16 0.00 0.00
8:58 am 08:58 Sunny 34 1.2 12 -11.2 39 39 WSW 12 19 29.64 1004 10 16 0.00 0.00
9:58 am 09:58 Sunny 38 3.5 10 -12.4 30 30 W 15 24 29.62 1003 10 16 0.00 0.00
10:58 am 10:58 Sunny 43 6.1 6 -14.6 21 21 W 22 35 29.57 1002 10 16 0.00 0.00
11:58 am 11:58 Sunny 45 7.2 5 -14.9 19 19 WNW 32 52 29.55 1001 10 16 0.00 0.00
12:58 pm 12:58 Sunny 46 7.5 7 -14.1 20 20 W 31 50 29.51 999 10 16 0.00 0.00
1:58 pm 13:58 Sunny 46 8 6 -14.4 19 19 W 25 41 29.52 1000 10 16 0.00 0.00
2:58 pm 14:58 Sunny 47 8.1 7 -14.1 19 19 W 26 43 29.53 1000 10 16 0.00 0.00
3:58 pm 15:58 Sunny 45 7.1 8 -13.6 21 21 W 20 31 29.53 1000 10 16 0.00 0.00
4:58 pm 16:58 Clear 40 4.5 7 -13.8 25 25 W 16 26 29.54 1001 10 16 0.00 0.00
5:58 pm 17:58 Mostly Clear 38 3.4 6 -14.6 26 26 SSW 7 11 29.56 1001 10 16 0.00 0.00
6:58 pm 18:58 Mostly Cloudy 34 1.3 6 -14.3 31 31 S 9 15 29.59 1002 10 16 0.00 0.00
7:58 pm 19:58 Cloudy 33 0.5 6 -14.3 32 32 S 5 7 29.59 1002 10 16 0.00 0.00
8:58 pm 20:58 Mostly Cloudy 32 0.2 6 -14.4 33 33 S 3 6 29.54 1001 10 16 0.00 0.00
9:58 pm 21:58 Mostly Cloudy 33 0.7 6 -14.4 32 32 SSW 9 15 29.53 1000 10 16 0.00 0.00
10:58 pm 22:58 Mostly Cloudy 35 1.4 6 -14.5 30 30 SSW 6 9 29.49 999 10 16 0.00 0.00
11:58 pm 23:58 Cloudy 34 1 6 -14.2 31 31 S 10 17 29.47 998 10 16 0.00 0.00

Powered by AerisWeather